Location: Newark
(42.9858°N, 0.6717°E)
Time: 11:34:54
(UTC+00:00)

S-56A Canister/Altair - Pass Details

Date: 28 November 2019
Orbit: 633 x 2500 km, 38.9° (Epoch: 12 December)

Event Time Altitude Azimuth Distance (km) Brightness Sun altitude
Rises 10:20:36 0° 177° (S) 6,138 13.4 22.8°
Reaches altitude 10° 10:28:13 10° 153° (SSE) 5,137 13.7 23.3°
Maximum altitude 10:33:37 13° 132° (SE) 4,794 12.8 23.6°
Drops below altitude 10° 10:38:45 10° 110° (ESE) 4,868 12.2 23.9°
Sets 10:45:22 0° 86° (E) 5,540 12.0 24.3°
